Regional Weather Roundup
Issued by NWS Binghamton, NY

Home | Current Version | Previous Version | Text Only | Print | Product List | Glossary On
Versions: 1 2 3 4 5 6 7 8 9 10 11 12 13 14 15 16 17 18 19 20 21 22 23 24 25 26 27 28 29 30 31 32 33 34 35 36 37 38 39 40 41 42 43 44 45 46 47 48 49 50
000
ASUS41 KBGM 230610
RWRBGM

REGIONAL WEATHER ROUNDUP
NATIONAL WEATHER SERVICE BINGHAMTON NY
100 AM EST THU NOV 23 2017

Note: "fair" indicates few or no clouds below 12,000 feet with no
significant weather and/or obstructions to visibility.

* = Station(s) that does not report precipitation, such as rain,
snow, etc, also no thunder or fog.

NYZ009-015>018-022>025-036-037-044>046-055>057-062-230700
...Central New York...

CITY           SKY/WX    TMP DP  RH WIND       PRES   REMARKS
Binghamton     CLOUDY    26  17  68 N12       30.07F WCI  16
Cortland       CLOUDY    28  23  80 W6        30.11S WCI  22
Dansville      CLOUDY    28  15  58 W7        30.18S WCI  21
Elmira         CLOUDY    28  19  69 SW7       30.15S WCI  21
Seneca Falls   CLOUDY    30  21  69 W7        30.17S WCI  23
Ithaca         FLURRIES  27  20  75 NW10      30.12F WCI  17
Hamilton       CLOUDY    27  18  69 NW5       30.09F WCI  21
Hornell        CLOUDY    25  18  74 W7        30.18F WCI  17
Monticello     CLOUDY    27  18  69 NW12G20   30.06R WCI  17
Penn Yan       CLOUDY    28  16  60 W7        30.15S WCI  21
Rome           CLOUDY    28  21  75 W10       30.13F WCI  19
Sidney         CLOUDY    27  18  69 W7        30.10F WCI  19
Syracuse       FLURRIES  29  19  66 W12G18    30.14F WCI  19
$$

PAZ038>040-043-044-047-048-072-230700
...Northeast Pennsylvania...

CITY           SKY/WX    TMP DP  RH WIND       PRES   REMARKS
Hazleton       CLOUDY    27  18  69 NW13      30.09F WCI  16
Scranton       MOCLDY    29  17  61 N10       30.11S WCI  20
$$
&&
KEY
WCI = Wind Chill Index
VSB = Visibility
HX  = Heat Index
$$



USA.gov is the U.S. government's official web portal to all federal, state and local government web resources and services.